When you browse on this site, cookies collect data to enhance your experience and personalize the content and advertising you see.
Visit our Privacy Policy to learn more. By continuing to use the site, you agree to this use of cookies and data.
  • In Romania
  • List of Countries
  • For 7 days
  • Water Temperature
  • Satellite Maps
  • Weather Map
  • Weather Widgets
  • user-avatar
    Login

    Hourly Weather Nakło nad Notecią

    Today, 10 December, Monday

    Time Temperature Precipitation Wind Pressure Humidity
    00:00 +5°C° 0.3 mm 5 mps 737 mmHg 86%
    01:00 +3°C° 0 mm 5 mps 737 mmHg 86%
    02:00 +3°C° 0.2 mm 6 mps 738 mmHg 83%
    03:00 +3°C° 0.2 mm 7 mps 738 mmHg 79%
    04:00 +2°C° 0.2 mm 8 mps 739 mmHg 76%
    05:00 +3°C° 0 mm 7 mps 740 mmHg 75%
    06:00 +2°C° 0 mm 7 mps 740 mmHg 75%
    07:00 +2°C° 0 mm 6 mps 741 mmHg 74%
    08:00 +2°C° 0 mm 7 mps 742 mmHg 73%
    09:00 +2°C° 0 mm 7 mps 742 mmHg 72%
    10:00 +2°C° 0 mm 7 mps 743 mmHg 72%
    11:00 +3°C° 0.1 mm 7 mps 743 mmHg 69%
    12:00 +3°C° 0.1 mm 7 mps 743 mmHg 67%
    13:00 +3°C° 0.1 mm 7 mps 743 mmHg 64%
    14:00 +3°C° 0 mm 7 mps 744 mmHg 66%
    15:00 +2°C° 0 mm 6 mps 744 mmHg 68%
    16:00 +2°C° 0 mm 5 mps 744 mmHg 70%
    17:00 +2°C° 0 mm 5 mps 744 mmHg 72%
    18:00 +1°C° 0 mm 5 mps 744 mmHg 75%
    19:00 +1°C° 0 mm 5 mps 744 mmHg 77%
    20:00 0°C° 0 mm 5 mps 744 mmHg 79%
    21:00 0°C° 0 mm 5 mps 744 mmHg 80%
    22:00 0°C° 0 mm 5 mps 744 mmHg 82%
    23:00 0°C° 0.1 mm 5 mps 744 mmHg 82%

    Tomorrow, 11 December, Tuesday

    Time Temperature Precipitation Wind Pressure Humidity
    00:00 0°C° 0.1 mm 5 mps 744 mmHg 83%
    01:00 0°C° 0.1 mm 4 mps 745 mmHg 83%
    02:00 0°C° 0.3 mm 4 mps 744 mmHg 83%
    03:00 0°C° 0.3 mm 4 mps 744 mmHg 83%
    04:00 0°C° 0.3 mm 4 mps 744 mmHg 83%
    05:00 0°C° 0.2 mm 4 mps 744 mmHg 84%
    06:00 +1°C° 0.2 mm 3 mps 745 mmHg 86%
    07:00 +1°C° 0.2 mm 3 mps 745 mmHg 87%
    08:00 +2°C° 0.1 mm 2 mps 745 mmHg 87%
    09:00 +2°C° 0.1 mm 2 mps 745 mmHg 88%
    10:00 +3°C° 0.1 mm 2 mps 746 mmHg 89%
    11:00 +3°C° 0.1 mm 2 mps 746 mmHg 88%
    12:00 +3°C° 0.1 mm 2 mps 746 mmHg 86%
    13:00 +3°C° 0.1 mm 2 mps 747 mmHg 85%
    14:00 +3°C° 0.1 mm 2 mps 747 mmHg 87%
    15:00 +3°C° 0.1 mm 2 mps 748 mmHg 89%
    16:00 +2°C° 0.1 mm 2 mps 748 mmHg 91%
    17:00 +1°C° 0 mm 3 mps 749 mmHg 92%
    18:00 +1°C° 0 mm 3 mps 749 mmHg 92%
    19:00 +1°C° 0 mm 3 mps 750 mmHg 92%
    20:00 0°C° 0 mm 3 mps 750 mmHg 92%
    21:00 0°C° 0 mm 3 mps 751 mmHg 92%
    22:00 0°C° 0 mm 3 mps 751 mmHg 92%
    23:00 0°C° 0 mm 3 mps 752 mmHg 92%

    Day after tomorrow, 12 December, Wednesday

    Time Temperature Precipitation Wind Pressure Humidity
    00:00 -1°C° 0 mm 3 mps 752 mmHg 93%
    01:00 -1°C° 0 mm 3 mps 753 mmHg 93%
    02:00 -1°C° 0 mm 3 mps 753 mmHg 93%
    03:00 -1°C° 0 mm 2 mps 753 mmHg 94%
    04:00 -2°C° 0 mm 2 mps 753 mmHg 94%
    05:00 -2°C° 0 mm 2 mps 754 mmHg 94%
    06:00 -2°C° 0 mm 2 mps 754 mmHg 94%
    07:00 -2°C° 0 mm 2 mps 755 mmHg 94%
    08:00 -1°C° 0 mm 2 mps 755 mmHg 92%
    09:00 -1°C° 0 mm 2 mps 755 mmHg 89%
    10:00 +1°C° 0 mm 2 mps 756 mmHg 87%
    11:00 +1°C° 0 mm 2 mps 756 mmHg 85%
    12:00 +2°C° 0 mm 1 mps 756 mmHg 83%
    13:00 +3°C° 0 mm 1 mps 756 mmHg 81%
    14:00 +2°C° 0 mm 1 mps 756 mmHg 85%
    15:00 +2°C° 0 mm 1 mps 756 mmHg 88%
    16:00 +1°C° 0 mm 1 mps 756 mmHg 91%
    17:00 +1°C° 0 mm 1 mps 756 mmHg 92%
    18:00 0°C° 0 mm 1 mps 756 mmHg 92%
    19:00 0°C° 0 mm 1 mps 757 mmHg 93%
    20:00 0°C° 0 mm 1 mps 757 mmHg 93%
    21:00 0°C° 0 mm 1 mps 757 mmHg 93%
    22:00 0°C° 0 mm 1 mps 757 mmHg 94%
    23:00 0°C° 0 mm 1 mps 757 mmHg 94%

    13 December, Thursday

    Time Temperature Precipitation Wind Pressure Humidity
    00:00 0°C° 0 mm 1 mps 757 mmHg 93%
    01:00 0°C° 0 mm 1 mps 758 mmHg 93%
    02:00 0°C° 0 mm 1 mps 757 mmHg 94%
    03:00 -2°C° 0 mm 2 mps 757 mmHg 94%
    04:00 -2°C° 0 mm 2 mps 757 mmHg 95%
    05:00 -2°C° 0 mm 2 mps 757 mmHg 94%
    06:00 -2°C° 0 mm 2 mps 757 mmHg 94%
    07:00 -2°C° 0 mm 2 mps 757 mmHg 93%
    08:00 -1°C° 0 mm 2 mps 757 mmHg 92%
    09:00 -1°C° 0 mm 2 mps 757 mmHg 90%
    10:00 -1°C° 0 mm 2 mps 757 mmHg 88%
    11:00 -1°C° 0 mm 2 mps 757 mmHg 86%
    12:00 +1°C° 0 mm 2 mps 757 mmHg 84%
    13:00 +1°C° 0 mm 2 mps 757 mmHg 82%
    14:00 -1°C° 0 mm 2 mps 757 mmHg 83%
    15:00 -1°C° 0 mm 2 mps 756 mmHg 85%
    16:00 -1°C° 0 mm 2 mps 756 mmHg 87%
    17:00 -1°C° 0 mm 2 mps 756 mmHg 87%
    18:00 -2°C° 0 mm 2 mps 757 mmHg 88%
    19:00 -2°C° 0 mm 2 mps 757 mmHg 88%
    20:00 -2°C° 0 mm 2 mps 757 mmHg 89%
    21:00 -2°C° 0 mm 2 mps 757 mmHg 89%
    22:00 0°C° 0 mm 1 mps 757 mmHg 90%
    23:00 -2°C° 0 mm 2 mps 758 mmHg 89%

    14 December, Friday

    Time Temperature Precipitation Wind Pressure Humidity
    00:00 -2°C° 0 mm 2 mps 758 mmHg 89%
    01:00 -2°C° 0 mm 2 mps 758 mmHg 88%
    02:00 -2°C° 0 mm 2 mps 758 mmHg 88%
    03:00 -2°C° 0 mm 2 mps 758 mmHg 87%
    04:00 -2°C° 0 mm 2 mps 758 mmHg 87%
    05:00 -2°C° 0 mm 2 mps 758 mmHg 88%
    06:00 -2°C° 0 mm 2 mps 759 mmHg 89%
    07:00 -3°C° 0 mm 2 mps 759 mmHg 90%
    08:00 -2°C° 0 mm 2 mps 759 mmHg 89%
    09:00 -2°C° 0 mm 2 mps 760 mmHg 87%
    10:00 -2°C° 0 mm 2 mps 760 mmHg 85%
    11:00 -1°C° 0 mm 2 mps 761 mmHg 84%
    12:00 -1°C° 0 mm 2 mps 761 mmHg 83%
    13:00 -1°C° 0 mm 2 mps 761 mmHg 81%
    14:00 -1°C° 0 mm 2 mps 761 mmHg 84%
    15:00 -2°C° 0 mm 2 mps 761 mmHg 87%
    16:00 -2°C° 0 mm 2 mps 762 mmHg 90%
    17:00 -2°C° 0 mm 2 mps 762 mmHg 91%
    18:00 -2°C° 0 mm 2 mps 762 mmHg 92%
    19:00 -2°C° 0 mm 2 mps 763 mmHg 93%
    20:00 -2°C° 0 mm 2 mps 763 mmHg 93%
    21:00 -2°C° 0 mm 2 mps 763 mmHg 93%
    22:00 -2°C° 0 mm 2 mps 763 mmHg 93%
    23:00 -2°C° 0 mm 2 mps 764 mmHg 93%

    15 December, Saturday

    Time Temperature Precipitation Wind Pressure Humidity
    00:00 -2°C° 0 mm 2 mps 764 mmHg 93%
    01:00 -2°C° 0 mm 2 mps 764 mmHg 93%
    02:00 -2°C° 0 mm 2 mps 764 mmHg 93%
    03:00 -2°C° 0 mm 2 mps 764 mmHg 92%
    04:00 -2°C° 0 mm 2 mps 764 mmHg 92%
    05:00 -2°C° 0 mm 2 mps 765 mmHg 91%
    06:00 -2°C° 0 mm 2 mps 765 mmHg 90%
    07:00 -2°C° 0 mm 2 mps 765 mmHg 90%
    08:00 -2°C° 0 mm 2 mps 765 mmHg 88%
    09:00 -1°C° 0 mm 3 mps 766 mmHg 85%
    10:00 -1°C° 0 mm 3 mps 766 mmHg 83%
    11:00 -1°C° 0 mm 3 mps 766 mmHg 81%
    12:00 -1°C° 0 mm 3 mps 766 mmHg 78%
    13:00 0°C° 0 mm 3 mps 766 mmHg 75%
    14:00 -1°C° 0 mm 3 mps 766 mmHg 78%
    15:00 -1°C° 0 mm 2 mps 766 mmHg 81%
    16:00 -2°C° 0 mm 2 mps 766 mmHg 84%
    17:00 -2°C° 0 mm 2 mps 766 mmHg 85%
    18:00 -2°C° 0 mm 3 mps 767 mmHg 86%
    19:00 -2°C° 0 mm 3 mps 767 mmHg 88%
    20:00 -4°C° 0 mm 3 mps 767 mmHg 88%
    21:00 -4°C° 0 mm 3 mps 767 mmHg 88%
    22:00 -4°C° 0 mm 4 mps 767 mmHg 88%
    23:00 -4°C° 0 mm 4 mps 767 mmHg 87%
    Show more